Location: Unspecified
(0.0000°N, 0.0000°E)
Time: 08:11:51
(UTC+00:00)

ZACube-1 - Visible Passes

Search period start: 18 September 2021 00:00
Search period end: 28 September 2021 00:00
Orbit: 584 x 664 km, 97.6° (Epoch: 17 September)

Date Brightness Start Highest point End Pass type
(mag) Time Alt. Az. Time Alt. Az. Time Alt. Az.
18 Sep ? 03:27:50 10° NE 03:28:39 14° ENE 03:28:39 14° ENE visible
18 Sep ? 05:04:35 10° NW 05:05:54 13° WNW 05:05:54 13° WNW visible
19 Sep ? 03:45:35 10° NNE 03:47:24 22° NE 03:47:24 22° NE visible
20 Sep ? 04:03:50 10° NNE 04:06:08 32° NNE 04:06:08 32° NNE visible
21 Sep ? 04:22:26 10° N 04:24:53 32° NNW 04:24:53 32° NNW visible
22 Sep ? 04:41:27 10° NNW 04:43:37 23° NW 04:43:37 23° NW visible
23 Sep ? 03:24:42 10° ENE 03:25:07 12° ENE 03:25:07 12° ENE visible
23 Sep ? 05:01:03 10° NW 05:02:22 14° WNW 05:02:22 14° WNW visible
24 Sep ? 03:42:21 10° NE 03:43:51 20° NE 03:43:51 20° NE visible
25 Sep ? 04:00:32 10° NNE 04:02:37 29° NNE 04:02:37 29° NNE visible
26 Sep ? 04:19:05 10° N 04:21:22 31° N 04:21:22 31° N visible
27 Sep ? 04:38:02 10° NNW 04:40:06 23° NW 04:40:06 23° NW visible
